Notices

What's New in latest Release from April 7th, 2021:

- Updated Glossary, including Speed of Maximum Gust, and Total Hourly Precipitation

- Updated national and regional climate services offices contacts and prices information

- Addition of station inventory lists for 1981-2010, 1971-2000, and 1961-1990 Normals.

If you haven't already, please take our survey and provide feedback about our website: https://eccc.sondage-survey.ca/f/LanguageSelection.aspx?s=442ca660-fcf1-47c0-95a9-59707d6fd709

Hourly Data Report for November 29, 2019

SAINT JOHN A
NEW BRUNSWICK
Current Station Operator: NAVCAN

45°18'58.000" N
65°53'24.000" W
108.80 m
8104901
71609
YSJ

Download Data

Hourly Data (November 2019)
Hourly Data Report for November 29, 2019
TIME
LST
Temp Definition
°C
Dew Point Definition
°C
Rel Hum Definition
%
Precip. Amount Definition
mm

Wind Dir Definition
10's deg

Wind Spd Definition
km/h
Visibility Definition
km
Stn Press Definition
kPa
Hmdx Definition


Wind Chill Definition


Weather Definition


00:00 1.4 0.3 92   36 44 4.8 99.36     Fog
01:00 1.0 0.1 94   35 41 3.2 99.48     Rain,Fog
02:00 0.9 -0.5 90   35 36 4.8 99.63     Fog
03:00 0.9 -1.1 86   36 32 8.1 99.73     Fog
04:00 0.9 -1.7 83   1 27 4.8 99.75     Rain,Fog
05:00 0.5 -1.9 84   35 30 4.8 99.76     Rain,Fog
06:00 0.0 -2.6 83   35 36 9.7 99.78   -7 Rain,Fog
07:00 -0.3 -3.1 82   35 31 19.3 99.79   -7 LegendNANA
08:00 -0.5 -3.4 81   35 31 24.1 99.80   -7 Mostly Cloudy
09:00 -0.8 -3.9 79   34 27 24.1 99.80   -7 LegendNANA
10:00 -0.5 -4.0 77   34 31 24.1 99.77   -7 LegendNANA
11:00 -0.5 -4.7 74   34 35 24.1 99.70   -8 Mostly Cloudy
12:00 0.3 -4.7 69   35 39 24.1 99.57     LegendNANA
13:00 0.9 -4.9 65   35 36 24.1 99.49     LegendNANA
14:00 0.2 -6.2 62   35 36 24.1 99.46     Mostly Cloudy
15:00 -0.5 -6.9 62   33 39 24.1 99.47   -8 LegendNANA
16:00 -1.8 -8.3 61   35 31 24.1 99.52   -9 LegendNANA
17:00 -2.8 -9.5 60   34 39 24.1 99.51   -11 Mostly Cloudy
18:00 -4.0 -10.3 62   34 35 24.1 99.54   -12 LegendNANA
19:00 -5.2 -10.8 65   35 40 24.1 99.55   -14 LegendNANA
20:00 -6.0 -10.8 69   34 31 24.1 99.49   -14 Mainly Clear
21:00 -6.2 -11.2 68   34 44 24.1 99.41   -16 LegendNANA
22:00 -6.3 -11.2 68   33 37 24.1 99.38   -16 LegendNANA
23:00 -6.4 -11.2 69   33 30 24.1 99.35   -15 Mostly Cloudy

Notes on Data Quality.

Legend

  • E = Estimated
  • M = Missing
  • NA = Not Available*
  • [empty] = Indicates an unobserved value
Date modified: